Location: Newark
(21.0333°N, 105.8500°E)
Time: 20:18:34
(UTC+00:00)

Envisat - Pass Details

Date: 15 December 2019
Orbit: 764 x 766 km, 98.1° (Epoch: 28 January)

Event Time Altitude Azimuth Distance (km) Brightness Sun altitude
Rises 11:02:20 0° 165° (SSE) 3,215 6.3 -10.5°
Reaches altitude 10° 11:04:37 10° 164° (SSE) 2,291 5.5 -11.0°
Maximum altitude 11:09:41 82° 77° (ENE) 775 2.9 -12.1°
Drops below altitude 10° 11:14:45 10° 351° (N) 2,298 5.4 -13.2°
Sets 11:17:03 0° 350° (N) 3,226 6.1 -13.7°
